This demonstration page uses our WeatherBlox Daily Observations layout. Learn more.

Hourly Observations for March 31, 2019

Temp ( °F °C ) Dew Point ( °F °C ) Humidity (%) Winds ( mph kmh ) Pressure ( in mb ) Visibility ( mi km ) Precip ( " mm )
12:15 am 00:15 Clear 66 19 48 9 52 52 SSW 12 19 29.74 1007 10 16.09344 0 0
12:35 am 00:35 Clear 64 18 48 9 56 56 S 13 20 29.71 1006 10 16.09344 0 0
12:55 am 00:55 Clear 64 18 48 9 56 56 S 7 11 29.71 1006 10 16.09344 0 0
1:15 am 01:15 Clear 64 18 48 9 56 56 S 14 22 29.71 1006 10 16.09344 0 0
1:35 am 01:35 Clear 63 17 46 8 56 56 S 6 9 29.71 1006 10 16.09344 0 0
1:55 am 01:55 Clear 63 17 48 9 59 59 SSW 9 15 29.71 1006 10 16.09344 0 0
2:15 am 02:15 Clear 63 17 48 9 59 59 S 14 22 29.68 1005 10 16.09344 0 0
2:35 am 02:35 Clear 63 17 46 8 56 56 S 9 15 29.68 1005 10 16.09344 0 0
2:55 am 02:55 Clear 64 18 48 9 56 56 S 9 15 29.65 1004 10 16.09344 0 0
3:15 am 03:15 Clear 63 17 48 9 59 59 S 12 19 29.65 1004 10 16.09344 0 0
3:35 am 03:35 Clear 63 17 48 9 59 59 S 9 15 29.65 1004 10 16.09344 0 0
3:55 am 03:55 Clear 64 18 48 9 56 56 SSW 10 17 29.65 1004 10 16.09344 0 0
4:15 am 04:15 Clear 63 17 48 9 59 59 SSW 14 22 29.65 1004 10 16.09344 0 0
4:35 am 04:35 Partly Cloudy 64 18 48 9 56 56 SW 13 20 29.65 1004 10 16.09344 0 0
4:55 am 04:55 Mostly Cloudy 63 17 50 10 64 64 SSW 12 19 29.65 1004 10 16.09344 0 0
5:15 am 05:15 Mostly Cloudy 63 17 50 10 64 64 SSW 13 20 29.65 1004 10 16.09344 0 0
5:35 am 05:35 Cloudy 63 17 50 10 64 64 SW 7 11 29.68 1005 10 16.09344 0 0
5:55 am 05:55 Cloudy 63 17 50 10 64 64 WSW 7 11 29.68 1005 10 16.09344 0 0
6:15 am 06:15 Cloudy 63 17 52 11 68 68 SW 8 13 29.68 1005 10 16.09344 0 0
6:35 am 06:35 Cloudy 63 17 52 11 68 68 SSW 8 13 29.68 1005 10 16.09344 0 0
6:55 am 06:55 Cloudy 61 16 54 12 77 77 SSW 7 11 29.71 1006 10 16.09344 0 0
7:15 am 07:15 Cloudy 59 15 54 12 82 82 SSW 7 11 29.68 1005 10 16.09344 0 0
7:35 am 07:35 Cloudy 59 15 54 12 82 82 SW 5 7 29.71 1006 10 16.09344 0 0
7:55 am 07:55 Cloudy 59 15 54 12 82 82 SSW 6 9 29.71 1006 10 16.09344 0 0
8:15 am 08:15 Cloudy 59 15 54 12 82 82 W 9 15 29.71 1006 10 16.09344 0 0
8:35 am 08:35 Cloudy 59 15 52 11 77 77 NW 22 35 29.74 1007 10 16.09344 0 0
8:55 am 08:55 Cloudy 55 13 46 8 72 72 NW 25 41 29.77 1008 10 16.09344 0 0
9:15 am 09:15 Cloudy 54 12 43 6 67 67 WNW 20 31 29.77 1008 10 16.09344 0 0
9:35 am 09:35 Cloudy 52 11 43 6 72 72 NW 17 28 29.8 1009 10 16.09344 0 0
9:55 am 09:55 Cloudy 52 11 41 5 67 67 NNW 15 24 29.8 1009 10 16.09344 0 0
10:15 am 10:15 Cloudy 50 10 37 3 62 62 NW 23 37 29.83 1010 10 16.09344 0 0
10:35 am 10:35 Cloudy 50 10 36 2 58 58 NNW 23 37 29.83 1010 10 16.09344 0 0
10:55 am 10:55 Cloudy 50 10 36 2 58 58 NW 20 31 29.85 1011 10 16.09344 0 0
11:15 am 11:15 Cloudy 52 11 36 2 54 54 NW 17 28 29.85 1011 10 16.09344 0 0
11:35 am 11:35 Cloudy 52 11 36 2 54 54 NW 22 35 29.88 1012 10 16.09344 0 0
11:55 am 11:55 Mostly Cloudy 54 12 36 2 51 51 NW 18 30 29.88 1012 10 16.09344 0 0
12:15 pm 12:15 Sunny 55 13 36 2 47 47 WNW 20 31 29.88 1012 10 16.09344 0 0
12:35 pm 12:35 Sunny 54 12 36 2 51 51 WNW 26 43 29.88 1012 10 16.09344 0 0
12:55 pm 12:55 Partly Cloudy 55 13 36 2 47 47 NW 17 28 29.91 1013 10 16.09344 0 0
1:15 pm 13:15 Mostly Cloudy 52 11 34 1 50 50 NNW 26 43 29.91 1013 10 16.09344 0 0
1:35 pm 13:35 Mostly Cloudy 54 12 34 1 47 47 NNW 18 30 29.91 1013 10 16.09344 0 0
1:55 pm 13:55 Cloudy 54 12 34 1 47 47 WNW 23 37 29.91 1013 10 16.09344 0 0
2:15 pm 14:15 Cloudy 54 12 32 0 44 44 NNW 22 35 29.91 1013 10 16.09344 0 0
2:35 pm 14:35 Cloudy 52 11 32 0 47 47 NNW 18 30 29.91 1013 10 16.09344 0 0
2:55 pm 14:55 Cloudy 54 12 32 0 44 44 NW 25 41 29.91 1013 10 16.09344 0 0
3:15 pm 15:15 Cloudy 54 12 32 0 44 44 NW 23 37 29.91 1013 10 16.09344 0 0
3:35 pm 15:35 Mostly Cloudy 52 11 30 -1 44 44 NW 22 35 29.91 1013 10 16.09344 0 0
3:55 pm 15:55 Mostly Cloudy 52 11 30 -1 44 44 NNW 20 31 29.94 1014 10 16.09344 0 0
4:15 pm 16:15 Partly Cloudy 52 11 30 -1 44 44 NW 26 43 29.91 1013 10 16.09344 0 0
4:35 pm 16:35 Sunny 52 11 30 -1 44 44 NNW 24 39 29.91 1013 10 16.09344 0 0
4:55 pm 16:55 Partly Cloudy 50 10 30 -1 47 47 NNW 23 37 29.94 1014 10 16.09344 0 0
5:15 pm 17:15 Mostly Cloudy 50 10 30 -1 47 47 NW 20 31 29.94 1014 10 16.09344 0 0
5:35 pm 17:35 Cloudy 50 10 28 -2 43 43 NNW 23 37 29.94 1014 10 16.09344 0 0
5:55 pm 17:55 Cloudy 50 10 28 -2 43 43 NNW 23 37 29.97 1015 10 16.09344 0 0
6:15 pm 18:15 Mostly Cloudy 46 8 28 -2 50 50 NNW 23 37 30 1016 10 16.09344 0 0
6:35 pm 18:35 Partly Cloudy 46 8 28 -2 50 50 NW 30 48 30 1016 10 16.09344 0 0
6:55 pm 18:55 Sunny 45 7 27 -3 49 49 NW 29 46 30.03 1017 10 16.09344 0 0
7:15 pm 19:15 Partly Cloudy 45 7 27 -3 49 49 WNW 25 41 30.06 1018 10 16.09344 0 0
7:35 pm 19:35 Partly Cloudy 43 6 27 -3 53 53 NW 16 26 30.06 1018 10 16.09344 0 0
8:15 pm 20:15 Partly Cloudy 41 5 27 -3 57 57 NW 23 37 30.09 1019 10 16.09344 0 0
8:35 pm 20:35 Clear 41 5 25 -4 53 53 NW 13 20 30.09 1019 10 16.09344 0 0
8:55 pm 20:55 Partly Cloudy 41 5 25 -4 53 53 NNW 16 26 30.12 1020 10 16.09344 0 0
9:15 pm 21:15 Clear 41 5 25 -4 53 53 NW 16 26 30.12 1020 10 16.09344 0 0
9:35 pm 21:35 Clear 39 4 25 -4 56 56 NNW 25 41 30.12 1020 10 16.09344 0 0
9:55 pm 21:55 Clear 37 3 21 -6 52 52 NW 28 44 30.15 1021 10 16.09344 0 0
10:15 pm 22:15 Clear 37 3 21 -6 52 52 NW 30 48 30.15 1021 10 16.09344 0 0
10:35 pm 22:35 Clear 36 2 19 -7 52 52 NNW 29 46 30.18 1022 10 16.09344 0 0
10:55 pm 22:55 Clear 34 1 18 -8 51 51 NNW 24 39 30.21 1023 10 16.09344 0 0
11:15 pm 23:15 Clear 34 1 18 -8 51 51 NW 31 50 30.21 1023 10 16.09344 0 0
11:35 pm 23:35 Clear 34 1 18 -8 51 51 NW 29 46 30.21 1023 10 16.09344 0 0
11:55 pm 23:55 Clear 34 1 18 -8 51 51 NW 22 35 30.21 1023 10 16.09344 0 0

Powered by AerisWeather